Weather History for Burnet, TX

Change the Weather History Date:

Friday, September 28, 2012

  Actual Average Record
Temperature  
Mean Temperature 76 °F -  
Max Temperature 84 °F 82 °F 104 °F (2005)
Min Temperature 71 °F 61 °F 45 °F (1996)
Cooling Degree Days 12    
Growing Degree Days 26 (Base 50)    
Moisture  
Dew Point 68 °F    
Average Humidity 78    
Maximum Humidity 91    
Minimum Humidity 54    
Precipitation  
Precipitation 0.04 in - - ()
Sea Level Pressure  
Sea Level Pressure 30.01 in    
Wind  
Wind Speed 4 mph (SE)    
Max Wind Speed 9 mph    
Max Gust Speed -    
Visibility 10 miles    
Events Rain    
Averages and records for this station are not official NWS values.
T = Trace of Precipitation, MM = Missing Value Source: NWS Daily Summary

Daily Weather History Graph

Daily Weather History Graph

Search for Another Location

Airport:

Trip Planner

Search our weather history database for the weather conditions in past years. The results will help you decide how hot, cold, wet, or windy it might be!

Date:

Astronomy

Sep. 28, 2012 Rise Set
Actual Time 7:25 AM CDT 7:21 PM CDT
Civil Twilight 7:00 AM CDT 7:45 PM CDT
Nautical Twilight 6:33 AM CDT 8:13 PM CDT
Astronomical Twilight 6:04 AM CDT 8:41 PM CDT
Moon 6:23 PM CDT (9/28) 6:00 AM CDT (9/28)
Length of Visible Light 12h 44m
Length of Day
11h 56m
Waxing Gibbous, 98% of the Moon is Illuminated
Sep 28
Waxing Gibbous
Sep 29
Full
Oct 8
Last Quarter
Oct 15
New
Oct 21
First Quarter

Hourly Weather History & Observations

Time (CDT) Temp. Heat Index Dew Point Humidity Pressure Visibility Wind Dir Wind Speed Gust Speed Precip Events Conditions
12:53 AM 73.9 °F - 66.9 °F 79% 30.04 in 10.0 mi South 5.8 mph - N/A   Clear
1:53 AM 73.0 °F - 68.0 °F 84% 30.03 in 10.0 mi South 5.8 mph - N/A   Partly Cloudy
2:42 AM 72.0 °F - 68.0 °F 87% 30.08 in 10.0 mi Calm Calm - N/A   Mostly Cloudy
2:53 AM 72.0 °F - 68.0 °F 87% 30.02 in 10.0 mi Calm Calm - N/A   Scattered Clouds
3:41 AM 71.1 °F - 68.0 °F 90% 30.06 in 10.0 mi Calm Calm - N/A   Mostly Cloudy
3:53 AM 72.0 °F - 68.0 °F 87% 30.01 in 10.0 mi Calm Calm - N/A   Overcast
4:30 AM 72.0 °F - 68.0 °F 87% 30.05 in 10.0 mi Calm Calm - N/A   Partly Cloudy
4:50 AM 71.6 °F - 68.0 °F 88% 30.04 in 10.0 mi Calm Calm - N/A   Scattered Clouds
4:53 AM 71.1 °F - 68.0 °F 90% 29.99 in 10.0 mi Calm Calm - N/A   Scattered Clouds
5:02 AM 72.0 °F - 69.1 °F 91% 30.04 in 10.0 mi SE 3.5 mph - N/A   Mostly Cloudy
5:44 AM 72.0 °F - 69.1 °F 91% 30.05 in 10.0 mi Calm Calm - N/A   Overcast
5:53 AM 73.0 °F - 69.1 °F 87% 30.00 in 10.0 mi SE 3.5 mph - N/A   Overcast
6:53 AM 73.0 °F - 69.1 °F 87% 30.01 in 10.0 mi ESE 4.6 mph - N/A   Overcast
7:28 AM 73.0 °F - 69.1 °F 87% 30.06 in 10.0 mi ESE 4.6 mph - N/A   Overcast
7:53 AM 73.9 °F - 69.1 °F 85% 30.02 in 9.0 mi SE 3.5 mph - N/A   Overcast
8:22 AM 73.9 °F - 70.0 °F 87% 30.08 in 8.0 mi ESE 5.8 mph - N/A   Mostly Cloudy
8:53 AM 75.0 °F - 70.0 °F 84% 30.03 in 10.0 mi South 4.6 mph - N/A   Overcast
9:12 AM 75.0 °F - 70.0 °F 84% 30.08 in 10.0 mi SE 6.9 mph - N/A   Overcast
9:53 AM 77.0 °F - 70.0 °F 79% 30.04 in 10.0 mi SSE 4.6 mph - N/A   Mostly Cloudy
10:45 AM 80.1 °F 82.7 °F 68.0 °F 67% 30.10 in 10.0 mi SSE 8.1 mph - N/A   Mostly Cloudy
10:53 AM 82.0 °F 84.9 °F 68.0 °F 62% 30.04 in 10.0 mi Variable 4.6 mph - N/A   Scattered Clouds
11:53 AM 81.0 °F 83.8 °F 68.0 °F 65% 30.02 in 10.0 mi ESE 5.8 mph - N/A   Mostly Cloudy
12:53 PM 81.0 °F 83.8 °F 68.0 °F 65% 30.02 in 5.0 mi SSE 6.9 mph - 0.01 in Rain Light Rain
1:53 PM 82.0 °F 84.9 °F 68.0 °F 62% 29.97 in 10.0 mi SE 8.1 mph - 0.01 in   Overcast
2:53 PM 82.9 °F 85.0 °F 66.0 °F 56% 29.94 in 10.0 mi ESE 6.9 mph - N/A   Mostly Cloudy
3:53 PM 82.9 °F 84.6 °F 64.9 °F 54% 29.93 in 10.0 mi ESE 9.2 mph - N/A   Partly Cloudy
4:53 PM 82.0 °F 84.5 °F 66.9 °F 60% 29.93 in 10.0 mi ESE 9.2 mph - N/A   Clear
5:53 PM 82.0 °F 83.8 °F 64.9 °F 56% 29.92 in 10.0 mi ESE 8.1 mph - N/A   Partly Cloudy
6:53 PM 81.0 °F 83.0 °F 66.0 °F 60% 29.92 in 10.0 mi East 6.9 mph - N/A   Clear
7:53 PM 75.9 °F - 68.0 °F 76% 29.95 in 10.0 mi SSE 6.9 mph - N/A   Clear
8:53 PM 73.0 °F - 66.9 °F 81% 29.96 in 4.0 mi South 4.6 mph - 0.01 in Rain Rain
9:53 PM 72.0 °F - 68.0 °F 87% 29.97 in 10.0 mi Calm Calm - 0.01 in Rain Light Rain
10:53 PM 71.1 °F - 68.0 °F 90% 29.96 in 10.0 mi Calm Calm - 0.00 in Rain Light Rain
11:53 PM 72.0 °F - 68.0 °F 87% 29.96 in 10.0 mi Calm Calm - 0.00 in Rain Light Rain